Regional Weather Roundup
Issued by NWS Upton, NY

Current Version | Previous Version | Graphics & Text | Print | Product List | Glossary Off
Versions: 1 2 3 4 5 6 7 8 9 10 11 12 13 14 15 16 17 18 19 20 21 22 23 24 25 26 27

000
ASUS41 KOKX 221105
RWROKX

REGIONAL WEATHER ROUNDUP
NATIONAL WEATHER SERVICE NEW YORK NY
700 AM EDT TUE APR 22 2014

NOTE: "FAIR" INDICATES FEW OR NO CLOUDS BELOW 12,000 FEET WITH NO
SIGNIFICANT WEATHER AND/OR OBSTRUCTIONS TO VISIBILITY.

NYZ071-072-176-178-NJZ106-104-221200-
NEW YORK CITY METRO AREA


CITY           SKY/WX    TMP DP  RH WIND       PRES   REMARKS
CENTRAL PARK   PTCLDY    52  44  74 W9        29.78F
LAGUARDIA APRT MOCLDY    52  44  74 SW8       29.76S
KENNEDY INTL   MOCLDY    47  44  90 SW5       29.78F
NEWARK/LIBERTY MOCLDY    50  46  86 S3        29.77S
TETERBORO      PTCLDY    50  44  80 S5        29.75F
$$

NYZ177-179-078>081-221200-
LONG ISLAND NEW YORK

CITY           SKY/WX    TMP DP  RH WIND       PRES   REMARKS
FARMINGDALE    MOCLDY    46  43  89 SW7       29.78S
ISLIP          MOCLDY    49  44  83 S7        29.76F
SHIRLEY        PTCLDY    48  45  89 SW7       29.79F
WESTHAMPTON    SUNNY     39  36  89 SW3       29.80S
MONTAUK POINT    N/A     48  45  89 CALM      29.79F
$$

NYZ052-065-067-221200-
HUDSON VALLEY

CITY           SKY/WX    TMP DP  RH WIND       PRES   REMARKS
WHITE PLAINS   MOCLDY    48  43  82 CALM      29.75S
NEWBURGH       PTCLDY    50  39  66 CALM      29.73F
MONTGOMERY     MOCLDY    46  38  73 SW6       29.72S
POUGHKEEPSIE   MOCLDY    50  40  68 CALM      29.72F
ALBANY         CLOUDY    52  36  54 S8        29.69F
$$

NJZ001-105-106-008-010-013-015-019>022-104-221200-
NEW JERSEY

CITY           SKY/WX    TMP DP  RH WIND       PRES   REMARKS
NEWARK/LIBERTY MOCLDY    50  46  86 S3        29.77S
TETERBORO      PTCLDY    50  44  80 S5        29.75F
CALDWELL       PTCLDY    48  44  86 W3        29.77S
MORRISTOWN     PTCLDY    43  39  87 CALM      29.77S
SOMERVILLE     CLEAR     40  37  89 CALM      29.75F
LINDEN         FAIR      49  46  87 CALM      29.79S
SUSSEX         MOCLDY    46  34  62 CALM      29.73F
ANDOVER          N/A     45  41  86 CALM      29.74S
TRENTON        CLEAR     47  45  93 CALM      29.77S
MILLVILLE      PTCLDY    42  40  92 CALM      29.78F
ATLANTIC CITY  CLEAR     40  38  93 CALM      29.78F
WRIGHTSTOWN    PTCLDY    43  42  99 S2        29.76F
TOMS RIVER     CLEAR     37  34  87 CALM      29.78F
BELMAR         PTCLDY    45  37  76 SW5       29.78S
$$

PAZ047>061-062-071-221200-
EASTERN PENNSYLVANIA

CITY           SKY/WX    TMP DP  RH WIND       PRES   REMARKS
PHILADELPHIA   MOCLDY    50  44  80 S6        29.78F
ALLENTOWN      MOCLDY    46  39  76 CALM      29.75F
SCRANTON       CLOUDY    52  31  44 VRB3      29.70F
$$

CTZ002-004>006-009-010-012-RIZ004-006-007-MAZ004-011-015-221200-
SOUTHERN NEW ENGLAND
 IN CT

CITY           SKY/WX    TMP DP  RH WIND       PRES   REMARKS
BRADLEY INTL   PTSUNNY   46  41  82 S8        29.74F
HARTFORD       PTSUNNY   47  42  83 S8        29.75F
DANBURY        CLOUDY    42  39  89 CALM      29.76F
WTRBRY/OXFORD  MOCLDY    45  39  81 SW5       29.77F
BRIDGEPORT     PTCLDY    47  45  93 SW5       29.76F
MERIDEN        MOCLDY    44  41  89 CALM      29.76F
NEW HAVEN      PTCLDY    45  44  97 CALM      29.77F
CHESTER        FAIR      46  43  87 SW7       29.77F
GROTON         MOSUNNY   40  39  97 CALM      29.77F FOG
WILLIMANTIC    MOSUNNY   40  38  93 CALM      29.77F

 IN RI

CITY           SKY/WX    TMP DP  RH WIND       PRES   REMARKS
PROVIDENCE     PTSUNNY   44  41  89 S3        29.77F
BLOCK ISLAND   SUNNY     48  41  76 SW14      29.77F
WESTERLY       MOSUNNY   42  39  89 CALM      29.78F

 IN MA

CITY           SKY/WX    TMP DP  RH WIND       PRES   REMARKS
BOSTON         PTSUNNY   48  41  76 SW10      29.74F
WORCESTER      PTSUNNY   47  40  76 W13       29.72F
WESTFIELD      PTSUNNY   45  40  82 SW5       29.74S
PROVINCETOWN   SUNNY     46  43  87 MISG      29.77F
NANTUCKET      SUNNY     47  44  90 SW3       29.79S
$$

ANZ330-335-338-340-345-350-353-355-221200-
COASTAL MARINE OBSERVATIONS


STATION/POSITION TIME  SKY/WX   TEMP    WIND        PRES    VSBY  WAVE
                                AIR SEA DIR/SP/G                  HT/PER
                 (UTC)          (F)     (DEG/KT/KT) (MB)    (MI)  (FT/S)
NY HARB ENTRANCE 1100            46 45  VRB  6/  8  1008.4
4S FIRE IS       1000               46                N/A           4/ 9
23SW MTP         1100            45 44  250/  6/  6 1008.4          4/ 9
HUDSON CANYON    1000            46 45  250/  4/  4 1009.1          5/ 8
EXECUTION ROCKS  1100            48 45  210/  6/  8   N/A
WESTERN LI SOUND 1100            48      CALM  /  2   N/A           0
CENTRAL LI SOUND 1000            44 42  170/  4/  6   N/A           0
EASTERN LI SOUND NOT AVBL
ROBBINS REEF     1100            49     240/  7/  9   N/A
$$


>>>>>>>>>>>>>>>>>>>>>>>>>>>> KEY <<<<<<<<<<<<<<<<<<<<<<<<<<<
>                                                          <
>     SKY/WX - SKY CONDITION/PRESENT WEATHER               <
>     TMP    - TEMPERATURE IN FAHRENHEIT                   <
>     DP     - DEWPOINT IN FAHRENHEIT                      <
>     RH     - RELATIVE HUMIDITY IN PERCENT                <
>     WIND   - DIRECTION AND SPEED IN MPH                  <
>     PRES   - MEAN SEA LEVEL PRESSURE IN INCHES OF HG     <
>     WCI    - WIND CHILL INDEX                            <
>     VSB    - VISIBILITY IN MILES                         <
>     HX     - HEAT INDEX                                  <
>     TC     - TEMPERATURE IN CELSIUS                      <
>     VRB    - VARIABLE WIND DIRECTION                     <
>                                                          <
>>>>>>>>>>>>>>>>>>>>>>>>>>>> KEY <<<<<<<<<<<<<<<<<<<<<<<<<<<





USA.gov is the U.S. government's official web portal to all federal, state and local government web resources and services.